Wind_Speed
1 3 4 6 7 9 10 12 13 14 16 17 19 20 22 23 24 24 25 26 27 27 27 27 27 27 26 25 25 25 24 23 22 20 19 17 15 14 11 9 8 6 4 3
1 2 3 5 6 8 9 11 12 14 15 17 18 20 21 22 23 24 24 25 26 26 26 27 27 27 27 26 26 25 25 25 24 23 21 19 17 16 14 11 9 8 6 5
1 2 3 4 6 7 8 10 11 13 15 16 17 19 20 21 22 23 23 24 25 25 26 27 27 27 27 27 27 26 26 26 25 24 22 21 19 18 16 14 12 10 7 6
2 2 3 4 5 6 7 9 10 12 14 16 17 18 19 20 21 22 22 23 24 25 25 26 27 27 27 27 27 26 26 26 26 26 24 23 21 19 18 17 15 13 11 8
3 3 3 4 5 6 6 8 9 11 12 14 16 17 18 20 20 21 22 23 23 23 24 25 26 27 27 27 27 27 27 27 27 27 26 25 23 21 19 18 17 15 13 11
5 5 4 4 5 6 6 7 9 10 11 13 14 15 17 19 19 20 21 21 22 22 23 24 25 26 26 27 27 27 27 27 27 27 27 25 24 23 21 20 18 17 15 12
7 7 6 5 6 7 7 8 9 9 10 12 13 14 16 17 18 19 19 20 21 21 22 23 24 25 25 26 26 26 26 26 27 27 27 26 24 23 22 21 20 18 17 14
9 9 7 7 8 8 8 9 9 10 10 11 12 13 14 15 16 17 18 19 20 20 21 22 23 23 24 25 25 26 26 26 26 26 26 26 25 23 23 22 21 20 19 16
11 10 9 9 9 9 10 10 10 10 11 11 12 13 13 14 15 16 16 17 18 19 20 20 21 22 23 23 24 25 25 25 25 25 25 25 25 24 23 22 22 21 20 18
13 13 12 12 12 11 11 11 11 11 12 12 12 12 12 12 13 14 15 15 16 17 18 19 20 20 21 22 23 24 24 24 24 24 25 25 25 24 23 22 22 21 20 19
16 16 15 15 14 14 13 13 13 13 13 13 13 12 12 12 13 13 13 14 15 16 17 18 18 19 20 20 21 22 23 23 23 23 24 24 24 23 23 23 22 21 20 19
19 19 18 17 17 16 16 15 15 14 14 14 13 13 13 13 13 13 13 13 13 14 15 16 17 17 18 19 19 20 21 22 22 23 22 22 22 22 22 22 22 21 20 19
22 22 21 20 20 19 18 18 17 16 16 15 14 14 14 13 13 13 13 13 13 13 14 14 15 16 16 17 17 18 19 19 20 21 21 21 20 20 20 20 20 20 19 18
26 25 24 24 23 22 21 20 20 19 18 17 16 16 15 14 14 14 13 13 13 13 13 13 14 14 15 15 16 16 17 17 18 19 19 19 19 19 19 19 19 19 18 17
29 29 28 27 26 25 25 24 23 22 21 20 19 18 17 16 15 15 14 14 14 14 13 13 13 13 14 14 14 15 15 16 16 16 17 17 17 17 17 17 17 17 17 16
33 33 32 31 30 29 28 27 26 25 24 23 22 21 20 19 18 17 16 15 15 14 14 14 14 14 13 13 13 14 14 14 14 14 15 15 15 15 15 14 14 15 14 14
37 36 35 35 34 33 32 31 30 29 27 26 25 24 22 21 20 19 18 17 16 16 15 14 14 14 14 13 13 13 13 13 13 13 13 13 13 13 13 13 12 12 12 12
41 40 40 39 38 37 36 35 34 33 32 30 29 27 26 25 23 22 21 20 19 18 17 16 15 15 14 14 14 13 13 13 13 13 12 12 12 12 11 11 11 11 10 10
44 44 44 43 42 41 40 39 38 37 36 35 33 31 30 28 27 26 24 23 22 21 20 19 18 17 16 15 15 15 14 14 14 13 13 12 12 11 11 10 10 10 9 9
48 48 47 47 46 45 44 43 42 41 40 39 37 36 34 32 31 30 28 26 25 24 23 22 21 20 19 18 17 17 16 16 15 15 14 14 13 12 12 11 10 10 9 8
51 51 51 51 50 50 49 48 46 45 43 43 41 40 38 37 35 34 32 30 29 28 27 25 24 23 22 21 20 20 19 18 17 17 16 16 15 15 14 13 12 11 11 10
54 54 55 55 54 54 53 52 51 50 48 47 45 44 43 41 40 38 36 34 33 32 31 29 28 27 26 25 24 23 22 21 20 19 19 18 17 17 17 16 15 14 13 12
58 58 58 58 58 58 57 56 56 55 53 52 50 48 47 46 45 43 41 39 38 37 35 34 33 31 30 29 28 27 26 25 24 23 22 21 20 20 19 19 18 18 17 16
60 60 60 60 61 61 61 60 60 59 58 57 55 54 52 51 49 48 46 45 43 42 40 39 38 36 35 33 32 31 30 29 28 27 26 25 24 24 23 22 21 21 20 20
62 62 61 61 61 62 63 63 63 63 62 61 60 59 57 56 55 53 52 50 48 47 46 44 43 42 40 38 37 36 35 33 33 32 31 30 29 28 27 26 25 25 24 24
64 64 64 64 64 63 64 64 65 66 66 65 64 63 62 61 60 58 56 55 53 52 51 50 48 47 45 44 42 41 40 38 37 36 35 34 33 32 31 30 30 29 29 28
64 65 64 65 65 65 65 65 66 67 68 68 68 67 66 65 64 63 61 60 58 57 56 55 54 53 51 49 48 47 45 44 42 41 40 39 38 37 36 35 34 34 33 32
Wind_Direction
31 25 26 23 21 20 19 18 18 17 16 15 15 15 15 15 16 17 18 19 21 22 23 23 22 22 23 23 23 23 24 23 22 22 20 19 17 14 8 1 353 343 331 291
43 30 26 21 19 20 19 19 19 18 17 15 15 14 14 15 16 16 17 18 19 20 22 23 23 24 24 24 24 24 24 24 24 23 22 21 20 21 20 16 7 360 346 321
349 8 15 16 13 16 16 16 16 16 15 14 13 13 13 14 15 15 16 17 18 20 21 22 22 23 24 25 26 26 26 26 25 24 24 24 22 22 23 22 20 15 8 357
314 339 359 9 10 10 10 11 11 12 13 13 13 13 13 13 14 15 16 16 18 19 20 21 22 23 24 24 25 25 26 26 26 26 26 26 25 25 25 25 26 27 25 21
294 312 338 353 352 354 358 2 5 7 10 11 13 13 14 14 15 15 16 17 18 19 20 20 21 22 23 23 24 25 25 25 26 26 27 28 28 28 27 26 26 25 23 25
281 292 307 329 333 337 343 350 353 358 1 4 7 9 11 12 14 15 16 17 18 18 19 19 20 20 21 22 22 24 25 25 26 26 27 28 29 30 30 29 28 27 28 30
273 281 292 305 313 321 328 336 340 345 349 353 358 2 5 8 10 12 14 15 16 17 18 18 19 20 21 21 22 23 24 24 24 25 26 27 29 30 31 31 31 31 32 35
270 276 287 291 297 307 315 322 327 332 337 341 347 352 357 2 5 7 9 12 14 15 16 17 18 18 20 21 21 22 23 24 24 24 25 27 28 29 30 31 32 33 35 38
269 275 279 285 291 297 303 310 316 321 327 332 337 343 348 353 358 2 5 7 10 12 14 15 16 18 19 20 21 22 23 24 24 25 26 27 28 29 30 32 33 34 37 41
268 271 275 279 284 291 296 300 305 311 315 320 326 333 339 344 348 353 358 1 5 7 10 12 14 16 18 19 20 21 21 22 23 24 26 27 29 30 31 32 34 35 39 42
266 268 271 275 279 284 289 294 298 302 306 311 315 320 326 332 337 342 348 353 357 1 4 7 10 12 14 16 18 20 21 22 22 23 24 26 28 30 32 33 35 37 40 43
263 265 268 271 274 278 282 286 290 295 299 303 307 311 315 319 324 330 336 341 347 351 355 359 3 7 10 12 14 16 19 20 21 22 23 25 27 29 31 32 34 36 39 42
262 265 267 269 271 273 276 279 283 287 291 296 300 304 308 312 315 318 322 327 333 339 344 349 353 357 1 5 8 11 13 15 17 19 21 23 25 27 28 30 33 35 38 40
263 264 266 267 269 271 273 275 277 280 284 287 291 295 299 303 307 311 314 317 320 325 330 336 341 347 352 356 360 3 6 9 12 15 17 20 23 25 28 30 32 34 37 39
261 263 264 265 266 268 269 271 272 275 278 281 284 286 290 293 297 300 305 308 311 314 318 322 327 332 339 344 350 354 357 1 4 8 12 15 19 22 26 29 31 34 36 38
262 263 264 265 265 266 266 268 269 270 272 274 277 279 282 285 287 290 294 298 302 306 308 311 315 319 323 329 335 341 346 350 354 358 3 7 10 14 18 22 25 28 31 34
261 262 263 264 265 265 265 266 266 267 268 269 271 273 275 278 280 282 284 288 292 297 300 303 305 308 312 316 321 326 331 336 341 344 350 355 359 3 8 12 16 20 24 28
261 262 262 263 264 264 265 265 265 265 265 266 267 268 270 271 273 275 277 280 283 286 290 293 297 299 302 305 309 312 317 322 327 331 335 340 344 348 353 359 4 8 13 17
260 261 261 262 262 263 263 263 263 264 264 264 264 265 265 267 268 269 271 273 275 278 281 284 287 290 292 296 299 302 305 308 311 315 319 324 328 332 335 339 345 350 356 1
260 261 261 261 261 262 262 262 262 262 262 262 262 262 262 263 264 265 266 267 269 271 273 276 279 281 283 286 289 293 296 299 301 302 303 307 311 315 318 321 324 326 330 334
259 259 259 260 260 261 261 261 260 260 260 260 260 260 260 260 261 261 262 263 264 266 268 270 272 274 276 278 281 283 287 290 292 294 295 296 298 300 303 305 307 308 308 309
259 258 258 258 258 258 259 259 259 259 259 258 258 258 258 258 258 259 259 260 261 262 263 265 266 268 270 272 274 277 279 281 283 285 287 288 289 291 293 294 295 295 295 295
261 259 258 256 256 256 256 257 257 257 257 257 257 257 257 257 257 257 257 257 258 259 260 261 262 264 266 268 269 271 273 275 276 278 279 281 283 284 285 286 287 287 287 286
262 261 259 257 256 255 255 255 255 255 255 255 255 255 255 256 256 256 256 256 256 257 258 259 260 261 263 264 266 267 268 270 272 273 274 276 277 278 279 280 280 281 281 281
263 262 260 259 257 255 254 253 253 253 253 253 253 253 254 254 254 254 254 255 255 255 256 257 258 259 260 262 263 264 265 267 268 270 271 272 273 274 275 275 275 276 276 277
264 263 262 260 259 257 255 253 252 251 251 251 251 251 252 252 252 253 253 254 254 254 255 255 256 258 259 260 261 262 263 264 266 267 269 269 270 271 272 272 273 273 273 273
266 265 264 262 260 259 257 256 253 252 250 250 250 250 250 250 251 251 252 252 252 253 253 254 255 256 257 258 259 260 261 262 264 265 266 267 268 268 269 270 271 271 271 272
Height
5898 5897 5896 5895 5893 5891 5889 5887 5884 5881 5877 5874 5870 5865 5861 5856 5850 5845 5840 5834 5829 5823 5818 5813 5807 5802 5797 5792 5787 5783 5778 5774 5770 5766 5762 5758 5755 5753 5751 5749 5747 5746 5746 5745
5898 5897 5896 5895 5893 5892 5889 5887 5885 5882 5879 5875 5871 5867 5862 5858 5853 5848 5843 5837 5832 5827 5821 5816 5811 5806 5801 5796 5791 5786 5782 5777 5772 5768 5764 5760 5757 5754 5751 5749 5748 5746 5746 5745
5897 5897 5896 5895 5894 5892 5890 5888 5885 5883 5880 5876 5872 5868 5864 5860 5855 5850 5845 5840 5835 5830 5825 5820 5815 5809 5804 5799 5795 5790 5785 5780 5775 5771 5767 5763 5759 5756 5753 5751 5749 5747 5746 5745
5897 5897 5896 5897 5893 5892 5890 5888 5886 5883 5880 5877 5874 5870 5866 5861 5857 5852 5848 5843 5838 5833 5828 5823 5818 5813 5808 5803 5798 5793 5789 5784 5779 5774 5770 5766 5762 5758 5755 5753 5750 5748 5746 5745
5896 5895 5895 5895 5893 5891 5890 5888 5886 5884 5881 5878 5874 5871 5867 5863 5859 5855 5850 5846 5841 5836 5832 5827 5822 5817 5812 5807 5802 5797 5792 5787 5783 5778 5773 5769 5765 5761 5758 5755 5752 5750 5748 5746
5895 5894 5894 5895 5893 5891 5890 5888 5886 5883 5881 5878 5875 5873 5870 5865 5861 5856 5852 5848 5844 5839 5835 5830 5825 5820 5815 5811 5806 5801 5796 5791 5787 5782 5777 5773 5769 5765 5761 5758 5755 5752 5750 5748
5893 5893 5893 5893 5891 5890 5890 5889 5886 5883 5881 5878 5876 5873 5870 5866 5862 5858 5854 5850 5846 5842 5837 5833 5828 5824 5819 5814 5809 5805 5800 5795 5790 5786 5781 5777 5773 5769 5765 5761 5758 5755 5752 5750
5892 5892 5893 5891 5890 5889 5889 5886 5884 5882 5880 5878 5876 5873 5870 5867 5863 5860 5856 5852 5848 5844 5840 5836 5831 5827 5822 5818 5813 5808 5804 5799 5795 5790 5786 5781 5777 5773 5769 5765 5762 5759 5756 5753
5890 5891 5890 5888 5888 5887 5886 5884 5883 5881 5879 5877 5875 5873 5870 5867 5864 5861 5857 5854 5850 5846 5842 5838 5834 5830 5826 5821 5817 5812 5808 5803 5799 5794 5790 5785 5781 5777 5773 5769 5766 5763 5760 5757
5887 5887 5886 5886 5885 5884 5883 5882 5881 5879 5878 5876 5874 5872 5869 5867 5864 5861 5858 5855 5851 5848 5844 5840 5837 5833 5829 5824 5820 5816 5811 5807 5803 5798 5794 5790 5786 5782 5778 5774 5770 5767 5764 5762
5883 5883 5883 5883 5882 5882 5881 5880 5878 5877 5876 5874 5872 5870 5868 5866 5864 5861 5858 5855 5852 5849 5846 5842 5839 5835 5831 5827 5823 5819 5815 5811 5807 5802 5798 5794 5790 5786 5782 5779 5775 5772 5769 5767
5879 5879 5879 5879 5878 5878 5877 5876 5875 5874 5873 5871 5870 5868 5866 5864 5862 5860 5858 5855 5852 5849 5846 5843 5840 5837 5833 5829 5826 5822 5818 5814 5810 5806 5802 5798 5794 5791 5787 5783 5780 5777 5774 5771
5873 5873 5873 5874 5873 5873 5873 5872 5871 5871 5870 5868 5867 5865 5864 5862 5860 5858 5856 5854 5851 5849 5846 5843 5840 5837 5834 5831 5828 5824 5821 5817 5813 5809 5805 5802 5798 5795 5791 5788 5785 5782 5779 5776
5866 5867 5867 5868 5868 5868 5868 5867 5867 5866 5865 5864 5863 5862 5861 5859 5857 5856 5854 5852 5850 5847 5845 5843 5840 5837 5835 5832 5829 5825 5822 5819 5815 5812 5808 5805 5801 5798 5795 5792 5789 5786 5783 5781
5858 5859 5860 5861 5861 5861 5861 5861 5861 5861 5860 5859 5859 5858 5856 5855 5854 5852 5851 5849 5847 5845 5843 5841 5839 5837 5834 5831 5829 5826 5823 5820 5817 5814 5811 5807 5804 5801 5798 5795 5793 5790 5787 5785
5850 5851 5852 5853 5853 5854 5854 5854 5854 5854 5854 5854 5853 5852 5851 5851 5850 5848 5847 5845 5844 5842 5840 5838 5837 5835 5832 5830 5828 5825 5823 5820 5817 5814 5812 5809 5806 5803 5801 5798 5796 5793 5791 5788
5841 5842 5843 5844 5844 5845 5846 5846 5846 5847 5847 5846 5846 5846 5845 5845 5844 5843 5842 5841 5840 5838 5837 5835 5834 5832 5830 5828 5826 5824 5822 5819 5817 5814 5812 5809 5807 5805 5802 5800 5798 5795 5793 5791
5831 5832 5833 5834 5834 5835 5836 5837 5837 5837 5838 5838 5838 5838 5838 5838 5837 5837 5836 5835 5835 5834 5832 5831 5830 5828 5827 5825 5823 5822 5820 5818 5816 5813 5811 5809 5807 5805 5803 5801 5799 5797 5795 5793
5819 5820 5821 5821 5823 5824 5825 5826 5827 5827 5828 5828 5829 5829 5830 5830 5829 5829 5829 5829 5828 5828 5827 5826 5825 5824 5823 5821 5820 5818 5817 5815 5813 5812 5810 5808 5806 5804 5802 5800 5799 5797 5795 5793
5806 5807 5808 5809 5810 5811 5812 5813 5814 5816 5817 5817 5818 5819 5820 5820 5820 5820 5821 5821 5821 5820 5820 5819 5819 5818 5817 5816 5815 5814 5813 5811 5810 5808 5807 5805 5804 5802 5801 5799 5798 5796 5795 5793
5790 5792 5793 5794 5796 5797 5798 5799 5801 5802 5804 5805 5806 5808 5808 5809 5810 5810 5811 5812 5812 5811 5812 5812 5811 5811 5810 5810 5809 5808 5807 5807 5805 5804 5803 5802 5800 5799 5798 5797 5795 5794 5793 5792
5773 5774 5776 5778 5779 5781 5782 5784 5786 5787 5789 5791 5793 5794 5795 5797 5798 5799 5800 5801 5801 5802 5802 5802 5802 5802 5802 5802 5802 5802 5801 5801 5800 5799 5798 5797 5796 5795 5794 5793 5792 5791 5790 5789
5753 5755 5757 5759 5761 5763 5765 5767 5769 5771 5773 5775 5777 5779 5781 5783 5784 5786 5788 5789 5789 5790 5791 5792 5792 5792 5793 5793 5793 5793 5793 5793 5793 5792 5792 5791 5790 5789 5789 5788 5787 5786 5785 5785
5731 5734 5736 5738 5741 5743 5746 5748 5750 5752 5755 5758 5760 5763 5765 5767 5769 5772 5773 5775 5777 5778 5779 5780 5781 5781 5782 5783 5783 5784 5784 5784 5784 5784 5784 5784 5783 5783 5782 5782 5781 5780 5780 5779
5710 5712 5714 5717 5719 5722 5725 5728 5730 5732 5736 5739 5741 5744 5747 5749 5752 5755 5757 5760 5762 5763 5765 5766 5767 5768 5770 5771 5772 5773 5773 5774 5774 5774 5775 5775 5775 5774 5774 5774 5773 5773 5773 5772
5687 5690 5692 5694 5697 5700 5702 5705 5708 5711 5715 5718 5721 5724 5727 5730 5733 5737 5740 5743 5746 5748 5749 5751 5753 5754 5756 5758 5759 5760 5761 5762 5763 5763 5764 5764 5764 5765 5765 5765 5764 5764 5764 5764
5665 5666 5668 5671 5674 5676 5679 5682 5685 5689 5692 5696 5699 5703 5706 5710 5714 5717 5721 5724 5727 5730 5732 5735 5737 5739 5741 5743 5744 5746 5747 5748 5750 5751 5751 5752 5752 5753 5753 5754 5754 5754 5754 5754